Current Weather Conditions: station 46217

sailwx.info

Wave height 0.9 meters (2 feet), 11 second period

Water temperature 20.3° C

Last reported at 2014-Oct-30 17:07 UTC.
Time now 2014-Oct-30 18:57 UTC

Location: N 34°12' W 119°24'.
View on Google Maps.

See reports from other nearby stations

  
Tides and Currents Weather Stations Pressure Air Temp Water Temp Dewpoint Dewpoint Depression Visibility Wind Speed Wind Dir Waves Ship Positions
date/time (UTC)wind fromknots sea level pressurealtimeterstation pressurevisibilityair tempwater tempwave heightnotes
2014-Oct-30 17:07 20.3 0.9
2014-Oct-30 16:07 20.3 0.8
2014-Oct-30 15:07 20.4 0.8
2014-Oct-30 14:37 20.3 0.9
2014-Oct-30 14:07 19.9 0.8
2014-Oct-30 13:37 19.9 0.9
2014-Oct-30 13:07 19.9 0.8
2014-Oct-30 12:07 20.1 1.0
2014-Oct-30 11:07 19.9 0.9
2014-Oct-30 10:07 20.1 1.0
2014-Oct-30 09:07 20.1 0.9
2014-Oct-30 08:37 20.1 0.8
2014-Oct-30 08:07 20.1 0.8
2014-Oct-30 07:37 20.1 0.8
2014-Oct-30 06:07 20.1 0.8
2014-Oct-30 05:37 20.1 0.8
2014-Oct-30 05:07 20.1 0.8
2014-Oct-30 03:07 20.1 0.9
2014-Oct-30 02:07 20.2 1.0
2014-Oct-30 01:07 20.4 0.9
2014-Oct-30 00:37 20.4 0.9
2014-Oct-30 00:07 20.4 0.8
2014-Oct-29 23:07 20.4 0.8
2014-Oct-29 22:07 20.6 0.9
2014-Oct-29 21:07 20.7 0.8
2014-Oct-29 20:07 20.6 0.8
2014-Oct-29 19:37 20.4 0.8
2014-Oct-29 19:07 20.6 0.8
2014-Oct-29 18:07 20.4 0.8
2014-Oct-29 17:37 20.1 0.8
2014-Oct-29 17:07 20.1 0.8
2014-Oct-29 16:07 20.1 0.8
2014-Oct-29 14:07 20.1 0.8
2014-Oct-29 13:37 20.1 0.8
2014-Oct-29 13:07 20.1 0.8
2014-Oct-29 12:07 20.0 0.8
2014-Oct-29 11:37 20.0 0.8
2014-Oct-29 11:07 20.0 0.8
2014-Oct-29 09:07 20.1 0.8
2014-Oct-29 06:07 20.4 0.6
2014-Oct-29 05:37 20.4 0.6
2014-Oct-29 05:07 20.4 0.7
2014-Oct-29 04:37 20.4 0.8
2014-Oct-29 04:07 20.4 0.7
2014-Oct-29 03:07 20.6 0.7
2014-Oct-29 02:37 20.6 0.8
2014-Oct-29 02:07 20.6 0.8
2014-Oct-29 01:37 20.6 0.8
2014-Oct-29 01:07 20.6 0.8
2014-Oct-29 00:07 20.6 0.8
2014-Oct-28 23:07 20.9 0.8
2014-Oct-28 22:07 21.1 0.8
2014-Oct-28 21:37 21.1 0.8
2014-Oct-28 21:07 21.1 0.8
2014-Oct-28 19:07 20.8 0.9
2014-Oct-28 18:37 20.7 1.0
2014-Oct-28 18:07 20.6 1.0